Flag Weather past 2 weeks in South Bend, Indiana, U.S.A.

Now
51 °F

Light rain. Fog.


Feels Like: 47 °F
Forecast: 31 / 52 °F
Wind: 13 mph from West

Location: Michiana Regional Airport

Current Time: Nov 24, 2014 at 10:30:48 AM

Latest Report: Nov 24, 2014 at 9:54 AM


Visibility: 4 mi

Pressure: 29.09 "Hg

Humidity: 96%

Dew point: 50 °F

Location of South BendLocation

Historic Weather in South Bend — Graph

°F

South Bend temperature yesterday

Maximum temperature yesterday: 54 °F (at 1:54 PM)
Minimum temperature yesterday: 48 °F (at 4:54 AM)
Average temperature yesterday: 51 °F

Past Weeks' High & Low Weather Summary

 TemperatureHumidityPressure
High61 °F (Nov 10, 3:54 PM)100% (Nov 24, 8:54 AM)30.52 "Hg (Nov 24, 8:54 AM)
Low11 °F (Nov 15, 2:54 AM)43% (Nov 21, 3:54 PM)29.08 "Hg (Nov 24, 8:54 AM)
Average32 °F72%30.03 "Hg
* Reported Nov 9 8:54 AM — Nov 24 8:54 AM, South Bend, Weather by CustomWeather, © 2014

Note: Actual official high and low records may vary slightly from our data, if they occured in-between our weather recording intervals... More about our weather records

Advertising

South Bend weather history for previous 24 hours

 ConditionsComfort  
Time TempWeatherWind HumidityBarometerVisibility
8:54 AM
Nov 24
51 °FLight rain. Fog.7 mph100%29.08 "Hg1 mi
7:54 AM51 °FLight rain. Low clouds.7 mph96%29.10 "Hg10 mi
7:01 AM51 °FLight rain. Low clouds.9 mph96%29.10 "Hg7 mi
5:54 AM51 °FLight rain. Fog.10 mph92%29.12 "Hg2 mi
4:54 AM51 °FRain. Fog.10 mph92%29.12 "Hg5 mi
3:54 AM51 °FLight rain. Low clouds.14 mph92%29.12 "Hg10 mi
2:54 AM52 °FLight rain. Low clouds.15 mph93%29.10 "Hg9 mi
1:54 AM51 °FLight rain. Fog.9 mph92%29.08 "Hg6 mi
12:54 AM50 °FLight rain. Fog.3 mph96%29.10 "Hg3 mi
11:54 PM
Nov 23
50 °FRain. Fog.6 mph96%29.13 "Hg3 mi
10:54 PM50 °FRain. Fog.7 mph96%29.18 "Hg4 mi
9:54 PM51 °FRain. Fog.12 mph92%29.25 "Hg4 mi
8:54 PM52 °FRain. Fog.10 mph93%29.31 "Hg5 mi
7:54 PM51 °FRain. Fog.6 mph96%29.39 "Hg4 mi
6:54 PM52 °FRain. Fog.12 mph93%29.44 "Hg4 mi
5:54 PM52 °FRain. Fog.10 mph93%29.49 "Hg3 mi
4:54 PM51 °FRain. Fog.10 mph96%29.54 "Hg2 mi
3:54 PM52 °FRain. Fog.9 mph89%29.57 "Hg2 mi
2:54 PM52 °FLight rain. Mostly cloudy.12 mph83%29.60 "Hg4 mi
1:54 PM54 °FMostly cloudy.9 mph74%29.67 "Hg10 mi
12:54 PM53 °FPartly sunny.13 mph77%29.71 "Hg10 mi
11:54 AM53 °FMostly cloudy.8 mph74%29.76 "Hg10 mi
10:54 AM51 °FScattered clouds.9 mph77%29.81 "Hg10 mi
Weather by CustomWeather, © 2014

See weather overviewHow to use our weather pages